TIME,DELAY(SENSOR),PRES,OXYGEN,RAWTEMP,T(OPTODE),TCPHASE,FLUOR,BETA(BETA700),BETA(BETA412),BETA(BETA440),CDOM,C(CSC),ED(ED412.20),ED(ED444.00),ED(ED489.60),ED(ED554.30),LU(LU412.10),LU(LU443.90),LU(LU489.70),LU(LU554.70),COMP,TILTX,TILTY,CHECK
1371530203,5810,863.0599975585938000,30.1968803405761720,561.5307006835938000,4.4384479522705080,57.0771903991699200,55,99,99,78,81,15616,0,0,0,0,2147119158,2147771794,2147566262,2147566262,1060,2,13,65041
1371533799,5810,934.4199829101562000,31.4111309051513670,567.7678833007812000,4.2449021339416500,56.9409713745117200,55,98,100,76,81,15619,0,0,0,0,2147117961,2147770194,2147568740,2147568237,3559,2,13,36523
1371537399,5809,946.6300048828125000,31.5910797119140620,569.3383789062500000,4.1961169242858890,56.9198493957519500,55,97,98,78,80,15619,0,0,0,0,2147120603,2147768868,2147569344,2147567186,3076,2,13,24496
1371540999,5812,969.0300292968750000,32.6092491149902340,571.8668212890625000,4.1175351142883300,56.7846488952636700,55,100,100,78,80,15622,0,0,0,0,2147119424,2147769682,2147569490,2147567817,137,2,13,35257
1371544599,5810,969.3499755859375000,34.9721107482910160,572.0634155273438000,4.1114230155944820,56.4042892456054700,56,97,99,77,80,15622,0,0,0,0,2147123291,2147769910,2147567168,2147564900,3005,2,13,21047
1371548199,5808,967.6400146484375000,35.3442993164062500,571.9780273437500000,4.1140770912170410,56.3442497253418000,55,98,98,78,80,15621,0,0,0,0,2147122770,2147769078,2147568777,2147566930,3500,2,13,34845
1371551799,5809,997.7100219726562000,33.5174789428710940,574.7286987304688000,4.0285191535949710,56.6612815856933600,56,99,100,78,80,15615,0,0,0,0,2147118966,2147773632,2147571766,2147564864,295,2,13,43008
1371555399,5809,1000.9500122070312000,35.6385002136230500,574.7517089843750000,4.0278029441833500,56.3329582214355500,55,100,100,77,80,15618,0,0,0,0,2147119771,2147772160,2147567670,2147570514,338,2,13,8164
1371558999,5808,1005.4899902343750000,34.3039817810058600,574.5258178710938000,4.0348320007324220,56.5350990295410160,54,98,99,77,81,15617,0,0,0,0,2147118683,2147769517,2147571309,2147566948,246,2,13,63349
1371562599,5810,1004.2100219726562000,33.3616714477539060,574.3173217773438000,4.0413188934326170,56.6881599426269500,55,97,99,77,80,15616,0,0,0,0,2147118509,2147771035,2147567899,2147565421,3118,2,13,57720
1371566199,5807,1004.0100097656250000,36.1578216552734400,575.0217285156250000,4.0194029808044430,56.2558097839355500,55,97,99,76,79,15618,0,0,0,0,2147120137,2147773074,2147568082,2147568045,560,2,13,18216
1371569799,5810,1007.8300170898438000,34.6494407653808600,574.9174194335938000,4.0226459503173830,56.4827499389648440,54,98,99,78,79,15613,0,0,0,0,2147122176,2147771419,2147571785,2147564672,262,2,13,34218
1371573399,5812,1003.9099731445312000,33.7509689331054700,575.1273193359375000,4.0161170959472660,56.6280708312988300,55,98,100,77,80,15615,0,0,0,0,2147122505,2147763904,2147567588,2147566061,2952,2,13,48134
1371576999,5809,1013.5399780273438000,33.7211608886718750,575.2664184570312000,4.0117888450622560,56.6326408386230500,54,97,100,77,80,15615,0,0,0,0,2147118866,2147769929,2147569005,2147564644,360,2,13,3286
1371580599,5808,1022.1400146484375000,37.9930992126464840,574.8582763671875000,4.0244851112365720,55.9662590026855500,55,99,100,77,80,15613,0,0,0,0,2147120064,2147772050,2147568457,2147566016,128,2,13,31305
1371584199,5813,1009.9799804687500000,32.7074203491210940,575.0872192382812000,4.0173649787902830,56.8011207580566400,55,98,99,77,81,15614,0,0,0,0,2147121106,2147772032,2147567488,2147566244,2407,2,13,7871
1371587799,5809,1012.5900268554688000,34.8203010559082000,574.9207153320312000,4.0225467681884770,56.4615592956543000,54,96,99,82,81,15615,0,0,0,0,2147119689,2147771154,2147565869,2147565741,245,3,13,27686
1371591399,5808,1013.9799804687500000,35.4260292053222660,574.9467773437500000,4.0217299461364750,56.3623085021972660,55,97,99,76,81,15614,0,0,0,0,2147122788,2147770377,2147568402,2147566793,101,2,13,35871
1371594999,5812,1011.5999755859375000,32.1928291320800800,576.3563232421875000,3.9778630733489990,56.8908004760742200,55,96,99,77,81,15616,0,0,0,0,2147120960,2147778249,2147566829,2147569042,3547,2,13,45326
1371598599,5809,1014.9699707031250000,34.2856597900390600,575.6821899414062000,3.9988460540771484,56.5534591674804700,55,96,98,78,80,15616,0,0,0,0,2147120594,2147773650,2147572580,2147567049,70,2,13,33255
1371602199,5809,1015.1199951171875000,30.1252593994140620,574.8171997070312000,4.0257639884948730,57.2151908874511700,55,98,101,82,80,15610,0,0,0,0,2147119515,2147772580,2147570221,2147570075,235,2,13,14265
1371605799,5810,1019.7999877929688000,33.5424995422363300,575.8015747070312000,3.9951310157775880,56.6667594909668000,55,97,100,78,81,15612,0,0,0,0,2147120932,2147768210,2147572736,2147567241,17,2,13,36339
1371609399,5810,1018.0000000000000000,30.3859691619873050,575.7117919921875000,3.9979250431060790,57.1789894104003900,54,99,99,77,80,15614,0,0,0,0,2147123894,2147765147,2147568996,2147570907,75,2,13,55426
1371612999,5811,1015.3200073242188000,32.6894111633300800,574.8961791992188000,4.0233078002929690,56.8006515502929700,55,97,99,78,80,15613,0,0,0,0,2147118372,2147771474,2147566802,2147567798,38,2,13,20125
1371616599,5810,1014.9199829101562000,29.3506107330322270,575.0151977539062000,4.0196042060852050,57.3440589904785160,55,96,100,77,81,15614,0,0,0,0,2147120301,2147769828,2147569764,2147566317,3315,2,13,63782
1371620199,5810,1024.5100097656250000,36.8765411376953100,575.8294067382812000,3.9942650794982910,56.1519889831543000,54,98,99,77,80,15612,0,0,0,0,2147119853,2147773961,2147568658,2147567131,3225,2,13,11248
1371623799,5811,1016.3099975585938000,31.2731609344482420,575.1021118164062000,4.0168991088867190,57.0280799865722660,55,98,99,77,80,15608,0,0,0,0,2147122706,2147767085,2147569654,2147567926,61,3,13,36277
1371627399,5809,1011.9600219726562000,35.9750900268554700,576.4432983398438000,3.9751551151275635,56.2970008850097660,55,96,100,78,79,15611,0,0,0,0,2147120731,2147769526,2147567926,2147567844,173,2,13,9609
1371630999,5810,1007.3900146484375000,33.8348884582519500,576.4384765625000000,3.9753060340881348,56.6274795532226560,55,98,99,78,80,15600,0,0,0,0,2147121636,2147768402,2147569910,2147567058,3040,2,13,37864
1371634599,5808,1016.0000000000000000,37.9025497436523440,576.4863281250000000,3.9738180637359620,56.0013694763183600,55,99,100,77,80,15609,0,0,0,0,2147122294,2147765787,2147573083,2147566244,362,2,13,2361
1371638199,5809,1013.3400268554688000,33.6881484985351560,576.7271118164062000,3.9663178920745850,56.6606597900390600,54,97,98,76,80,15607,0,0,0,0,2147120073,2147767945,2147568685,2147566665,100,3,13,11180
1371641799,5810,1016.9799804687500000,33.8194389343261700,576.5172729492188000,3.9728510379791260,56.6310501098632800,55,97,100,78,81,15607,0,0,0,0,2147121600,2147766153,2147571328,2147565348,397,2,13,3583
1371645399,5810,1021.5300292968750000,36.3133583068847660,576.3903198242188000,3.9768071174621580,56.2447204589843750,55,95,98,77,81,15606,0,0,0,0,2147121517,2147768393,2147569243,2147565851,1043,2,13,17587
1371648999,5810,1024.3399658203125000,37.0357513427734400,576.0806884765625000,3.9864408969879150,56.1269187927246100,54,96,98,77,81,15602,0,0,0,0,2147118272,2147769545,2147569645,2147568128,652,2,13,14263
1371652599,5810,1015.0399780273438000,32.8662414550781250,576.5452270507812000,3.9719851016998290,56.7901382446289060,55,97,98,77,81,15604,0,0,0,0,2147122925,2147770468,2147567926,2147565988,95,2,13,38484
1371656199,5809,1015.0300292968750000,34.6450500488281250,576.4509277343750000,3.9749178886413574,56.5002212524414060,54,97,99,78,80,15602,0,0,0,0,2147123428,2147767771,2147569334,2147565321,637,2,13,6557
1371659799,5813,1022.2399902343750000,31.3445701599121100,576.2205200195312000,3.9820899963378906,57.0314903259277340,55,98,100,78,80,15603,0,0,0,0,2147120091,2147768374,2147566939,2147568493,88,2,13,10125
1371663399,5810,1020.4000244140625000,28.7051391601562500,575.6163940429688000,4.0008950233459470,57.4581489562988300,56,96,98,77,80,15602,0,0,0,0,2147121792,2147773549,2147568786,2147566098,145,2,13,64014
1371666999,5808,1019.9099731445312000,29.7029590606689450,576.3590698242188000,3.9777770042419434,57.2960395812988300,55,100,126,78,79,15604,0,0,0,0,2147119021,2147766070,2147568365,2147565677,233,2,13,25901
1371670599,5811,1017.6300048828125000,32.4538192749023440,575.7084960937500000,3.9980280399322510,56.8472709655761700,55,97,98,77,80,15604,0,0,0,0,2147121801,2147765302,2147567899,2147568850,18,2,13,4222
1371672957,5811,1019.4299926757812000,29.2895698547363280,575.7474975585938000,3.9968130588531494,57.3646202087402340,55,98,100,78,80,15603,0,0,0,0,2147122102,2147764918,2147569974,2147567570,393,2,13,29193
